FW9423 Weather Reports


Display with metric or nautical units.
time (UTC)temp
F
wind
direction
speed
MPH
gust
MPH
rain 1hr
in
rain 24hr
in
rain mn
in
humidity
%
barometer
mb
20260903234040 68 238 1.0 3.0 0.00 0.00 0.00 58 1013.9
20260903233541 67 250 0.0 3.0 0.00 0.00 0.00 59 1013.8
20260903233104 66 0 0.0 3.0 0.00 0.00 0.00 61 1013.9
20260903232541 65 196 0.0 3.0 0.00 0.00 0.00 63 1013.9
20260903232041 64 196 0.0 3.0 0.00 0.00 0.00 64 1013.9
20260903231600 63 0 0.0 2.0 0.00 0.00 0.00 66 1013.9
20260903231039 63 0 0.0 2.0 0.00 0.00 0.00 68 1013.9
20260903230542 62 0 0.0 2.0 0.00 0.00 0.00 70 1013.9
20260903230105 61 0 0.0 3.0 0.00 0.00 0.00 71 1013.9
20260903225544 60 0 0.0 3.0 0.00 0.00 0.00 72 1013.8
20260903225042 60 360 1.0 2.0 0.00 0.00 0.00 72 1013.9
20260903224636 59 0 0.0 2.0 0.00 0.00 0.00 73 1013.9
20260903224040 59 360 1.0 2.0 0.00 0.00 0.00 73 1013.8
20260903223540 59 360 1.0 2.0 0.00 0.00 0.00 73 1013.8
20260903223114 59 360 0.0 2.0 0.00 0.00 0.00 73 1013.7
20260903222539 59 360 0.0 2.0 0.00 0.00 0.00 73 1013.7
20260903222044 59 0 0.0 1.0 0.00 0.00 0.00 73 1013.6
20260903221559 59 0 0.0 0.0 0.00 0.00 0.00 73 1013.5
20260903221042 59 0 0.0 0.0 0.00 0.00 0.00 73 1013.4
20260903220542 59 0 0.0 0.0 0.00 0.00 0.00 73 1013.4
20260903220057 59 0 0.0 0.0 0.00 0.00 0.00 72 1013.3
20260903215546 59 0 0.0 0.0 0.00 0.00 0.00 72 1013.3
20260903215043 59 0 0.0 0.0 0.00 0.00 0.00 72 1013.2
20260903214556 59 0 0.0 1.0 0.00 0.00 0.00 71 1013.2
20260903214039 59 0 0.0 1.0 0.00 0.00 0.00 71 1013.1
20260903213545 60 0 0.0 0.0 0.00 0.00 0.00 71 1013.1
20260903213105 60 0 0.0 2.0 0.00 0.00 0.00 71 1013.0
20260903212542 60 0 0.0 3.0 0.00 0.00 0.00 71 1013.0
20260903212043 60 0 0.0 3.0 0.00 0.00 0.00 70 1012.9
20260903211611 60 0 1.0 3.0 0.00 0.00 0.00 70 1012.8
20260903211039 60 360 0.0 3.0 0.00 0.00 0.00 70 1012.8
20260903210541 60 360 0.0 2.0 0.00 0.00 0.00 70 1012.8
20260903210058 60 0 0.0 2.0 0.00 0.00 0.00 70 1012.7
20260903205540 60 0 0.0 2.0 0.00 0.00 0.00 70 1012.7
20260903205039 61 0 0.0 2.0 0.00 0.00 0.00 69 1012.7
20260903204604 61 0 0.0 3.0 0.00 0.00 0.00 69 1012.6
20260903204041 61 0 0.0 3.0 0.00 0.00 0.00 69 1012.5
20260903203541 61 0 1.0 3.0 0.00 0.00 0.00 69 1012.4
20260903203103 61 360 0.0 3.0 0.00 0.00 0.00 69 1012.4
20260903202543 61 360 0.0 3.0 0.00 0.00 0.00 68 1012.3
20260903202039 61 0 0.0 4.0 0.00 0.00 0.00 68 1012.3
20260903201603 61 360 1.0 4.0 0.00 0.00 0.00 68 1012.4
20260903201039 61 360 1.0 4.0 0.00 0.00 0.00 67 1012.4
20260903200539 62 360 1.0 4.0 0.00 0.00 0.00 67 1012.4
20260903200055 62 360 1.0 4.0 0.00 0.00 0.00 67 1012.4
20260903195538 62 360 1.0 4.0 0.00 0.00 0.00 67 1012.4
20260903195040 61 360 1.0 4.0 0.00 0.00 0.00 67 1012.4
20260903194603 61 360 1.0 3.0 0.00 0.00 0.00 67 1012.5
20260903194043 62 360 1.0 5.0 0.00 0.00 0.00 68 1012.4
20260903193542 62 360 1.0 5.0 0.00 0.00 0.00 67 1012.5
20260903193107 62 0 1.0 5.0 0.00 0.00 0.00 67 1012.5
20260903192538 62 360 1.0 3.0 0.00 0.00 0.00 67 1012.5
20260903192044 62 360 1.0 3.0 0.00 0.00 0.00 66 1012.6
20260903191601 62 360 0.0 3.0 0.00 0.00 0.00 66 1012.7
20260903191043 62 0 1.0 3.0 0.00 0.00 0.00 66 1012.7
20260903190541 62 360 1.0 3.0 0.00 0.00 0.00 66 1012.7
20260903190106 63 360 1.0 3.0 0.00 0.00 0.00 65 1012.8
20260903185542 63 360 1.0 4.0 0.00 0.00 0.00 65 1012.9
20260903185040 63 360 1.0 4.0 0.00 0.00 0.00 65 1012.7
20260903184603 63 360 1.0 4.0 0.00 0.00 0.00 65 1012.8
20260903184041 63 360 1.0 4.0 0.00 0.00 0.00 65 1012.6
20260903183542 63 0 1.0 4.0 0.00 0.00 0.00 66 1012.7
20260903183106 63 360 0.0 3.0 0.00 0.00 0.00 66 1012.7
20260903182544 63 360 1.0 3.0 0.00 0.00 0.00 66 1012.5
20260903182042 63 360 1.0 3.0 0.00 0.00 0.00 67 1012.6
20260903181601 63 360 1.0 3.0 0.00 0.00 0.00 67 1012.5
20260903181045 63 0 0.0 2.0 0.00 0.00 0.00 67 1012.6
20260903180543 63 0 0.0 3.0 0.00 0.00 0.00 68 1012.6
20260903180104 64 360 0.0 3.0 0.00 0.00 0.00 68 1012.6
20260903175541 64 360 0.0 3.0 0.00 0.00 0.00 68 1012.8
20260903175042 64 0 0.0 2.0 0.00 0.00 0.00 68 1012.7
20260903174608 64 360 0.0 2.0 0.00 0.00 0.00 68 1012.8
20260903174041 64 0 0.0 2.0 0.00 0.00 0.00 69 1013.0
20260903173542 64 0 0.0 2.0 0.00 0.00 0.00 69 1013.2
20260903173105 64 0 0.0 1.0 0.00 0.00 0.00 69 1013.4
20260903172542 64 0 0.0 1.0 0.00 0.00 0.00 68 1013.2
20260903172042 64 0 0.0 1.0 0.00 0.00 0.00 69 1013.2
20260903171605 64 0 0.0 2.0 0.00 0.00 0.00 69 1013.3
20260903171042 65 0 0.0 2.0 0.00 0.00 0.00 68 1013.4
20260903170541 65 0 0.0 2.0 0.00 0.00 0.00 68 1013.5
20260903165543 65 0 0.0 0.0 0.00 0.00 0.00 68 1013.4
20260903165042 65 0 0.0 0.0 0.00 0.00 0.00 67 1013.7
20260903164607 65 0 0.0 0.0 0.00 0.00 0.00 67 1013.7
20260903164042 65 0 0.0 0.0 0.00 0.00 0.00 67 1013.7
20260903163541 65 0 0.0 0.0 0.00 0.00 0.00 67 1013.6
20260903163059 65 0 0.0 0.0 0.00 0.00 0.00 67 1013.8
20260903162652 65 0 0.0 0.0 0.00 0.00 0.00 66 1014.1
20260903162042 65 0 0.0 0.0 0.00 0.00 0.00 66 1013.9
20260903161602 65 0 0.0 0.0 0.00 0.00 0.00 65 1013.9
20260903161045 65 0 0.0 1.0 0.00 0.00 0.00 65 1013.9
20260903160541 65 0 0.0 1.0 0.00 0.00 0.00 64 1014.1
20260903160106 64 0 0.0 1.0 0.00 0.00 0.00 64 1014.1
20260903155540 64 360 0.0 0.0 0.00 0.00 0.00 65 1014.0
20260903155042 64 0 0.0 1.0 0.00 0.00 0.00 64 1014.1
20260903154601 65 0 0.0 1.0 0.00 0.00 0.00 64 1014.1
20260903154043 64 0 0.0 1.0 0.00 0.00 0.00 64 1013.9
20260903153542 64 360 0.0 1.0 0.00 0.00 0.00 65 1013.9
20260903153108 64 0 0.0 1.0 0.00 0.00 0.00 64 1014.2
20260903152540 64 0 0.0 1.0 0.00 0.00 0.00 65 1014.3
20260903152047 64 0 0.0 0.0 0.00 0.00 0.00 66 1014.3
20260903151601 64 0 0.0 0.0 0.00 0.00 0.00 65 1014.5
20260903151042 64 0 0.0 0.0 0.00 0.00 0.00 65 1014.6
20260903150542 65 0 0.0 0.0 0.00 0.00 0.00 64 1014.7
20260903150100 65 0 0.0 1.0 0.00 0.00 0.00 63 1014.7
20260903145542 65 0 0.0 1.0 0.00 0.00 0.00 63 1014.9
20260903145039 65 0 0.0 1.0 0.00 0.00 0.00 63 1014.9
20260903144603 65 0 0.0 0.0 0.00 0.00 0.00 62 1014.9
20260903144042 66 0 0.0 0.0 0.00 0.00 0.00 62 1014.8
20260903143545 66 0 0.0 1.0 0.00 0.00 0.00 62 1014.8
20260903143106 66 0 0.0 1.0 0.00 0.00 0.00 60 1014.9
20260903142540 66 0 0.0 2.0 0.00 0.00 0.00 60 1015.1
20260903142148 66 0 0.0 2.0 0.00 0.00 0.00 60 1015.3
20260903141557 67 0 0.0 2.0 0.00 0.00 0.00 59 1015.4
20260903141045 67 360 0.0 1.0 0.00 0.00 0.00 58 1015.3
20260903140544 67 0 0.0 1.0 0.00 0.00 0.00 58 1015.1
20260903140105 67 0 0.0 1.0 0.00 0.00 0.00 58 1015.1
20260903135543 68 0 0.0 0.0 0.00 0.00 0.00 57 1015.1
20260903135042 68 0 0.0 0.0 0.00 0.00 0.00 56 1015.3
20260903134609 68 0 0.0 0.0 0.00 0.00 0.00 55 1015.3
20260903134043 69 0 0.0 2.0 0.00 0.00 0.00 54 1015.3
20260903133542 69 0 0.0 2.0 0.00 0.00 0.00 54 1015.2
20260903133112 69 0 0.0 2.0 0.00 0.00 0.00 54 1015.1
20260903132546 69 0 0.0 3.0 0.00 0.00 0.00 53 1015.4
20260903132043 70 360 0.0 3.0 0.00 0.00 0.00 53 1015.2
20260903131557 70 0 0.0 3.0 0.00 0.00 0.00 52 1015.0
20260903131046 70 360 1.0 3.0 0.00 0.00 0.00 52 1015.1
20260903130544 71 360 1.0 3.0 0.00 0.00 0.00 51 1015.1
20260903130129 71 360 1.0 5.0 0.00 0.00 0.00 50 1015.0
20260903125546 71 360 1.0 5.0 0.00 0.00 0.00 50 1014.9
20260903125044 71 360 2.0 5.0 0.00 0.00 0.00 49 1015.2
20260903124611 72 360 1.0 3.0 0.00 0.00 0.00 49 1015.4
20260903124043 72 360 1.0 4.0 0.00 0.00 0.00 49 1015.3
20260903123542 72 360 1.0 6.0 0.00 0.00 0.00 49 1015.5
20260903123100 72 360 1.0 6.0 0.00 0.00 0.00 50 1015.7
20260903122542 72 360 2.0 6.0 0.00 0.00 0.00 50 1015.5
20260903122044 72 360 2.0 5.0 0.00 0.00 0.00 50 1015.1
20260903121602 72 360 2.0 5.0 0.00 0.00 0.00 50 1015.1
20260903121042 72 360 1.0 5.0 0.00 0.00 0.00 50 1015.1
20260903120544 72 360 2.0 5.0 0.00 0.00 0.00 49 1015.3
20260903120106 72 360 1.0 5.0 0.00 0.00 0.00 49 1015.1
20260903115544 72 360 2.0 5.0 0.00 0.00 0.00 49 1015.2
20260903115042 73 360 1.0 5.0 0.00 0.00 0.00 48 1015.2
20260903114600 73 360 1.0 5.0 0.00 0.00 0.00 49 1015.4
20260903114042 73 360 2.0 5.0 0.00 0.00 0.00 48 1015.5
20260903113543 73 360 1.0 5.0 0.00 0.00 0.00 48 1015.2
20260903113102 73 360 1.0 6.0 0.00 0.00 0.00 47 1015.4
20260903112542 73 360 2.0 8.0 0.00 0.00 0.00 47 1015.0
20260903112042 74 360 2.0 8.0 0.00 0.00 0.00 46 1015.0
20260903111604 74 360 2.0 5.0 0.00 0.00 0.00 46 1015.0
20260903111043 74 360 2.0 6.0 0.00 0.00 0.00 46 1015.0
20260903110545 74 360 2.0 10.0 0.00 0.00 0.00 46 1015.0
20260903110101 74 360 3.0 10.0 0.00 0.00 0.00 46 1015.1
20260903105543 74 360 3.0 9.0 0.00 0.00 0.00 45 1015.1
20260903105040 74 360 1.0 4.0 0.00 0.00 0.00 45 1015.0
20260903104603 74 360 2.0 4.0 0.00 0.00 0.00 45 1015.0
20260903104039 74 360 1.0 4.0 0.00 0.00 0.00 45 1014.9
20260903103540 75 0 2.0 4.0 0.00 0.00 0.00 45 1014.7
20260903103057 75 360 0.0 4.0 0.00 0.00 0.00 45 1014.5
20260903102539 75 0 1.0 4.0 0.00 0.00 0.00 46 1014.5
20260903102039 75 360 1.0 3.0 0.00 0.00 0.00 46 1014.5
20260903101605 75 0 1.0 3.0 0.00 0.00 0.00 46 1014.5
20260903101040 75 360 0.0 2.0 0.00 0.00 0.00 45 1014.4
20260903100542 75 360 0.0 2.0 0.00 0.00 0.00 45 1014.3
20260903095542 75 0 0.0 3.0 0.00 0.00 0.00 45 1014.4
20260903095042 76 360 0.0 3.0 0.00 0.00 0.00 45 1014.4
20260903094612 76 360 0.0 4.0 0.00 0.00 0.00 44 1014.4
20260903094042 76 192 1.0 4.0 0.00 0.00 0.00 44 1014.4
20260903093543 76 164 0.0 2.0 0.00 0.00 0.00 42 1014.3
20260903093107 76 202 0.0 2.0 0.00 0.00 0.00 42 1014.3
20260903092540 77 0 0.0 2.0 0.00 0.00 0.00 42 1014.3
20260903092040 77 0 0.0 2.0 0.00 0.00 0.00 41 1014.3
20260903091603 77 0 0.0 1.0 0.00 0.00 0.00 40 1014.3
20260903091043 78 0 0.0 2.0 0.00 0.00 0.00 40 1014.2
20260903090540 78 0 0.0 2.0 0.00 0.00 0.00 40 1014.1
20260903090106 78 0 0.0 2.0 0.00 0.00 0.00 39 1014.1
20260903085541 78 0 0.0 2.0 0.00 0.00 0.00 38 1014.0
20260903085042 79 0 0.0 2.0 0.00 0.00 0.00 38 1014.1
20260903084601 79 0 0.0 3.0 0.00 0.00 0.00 37 1014.2
20260903084039 79 260 0.0 3.0 0.00 0.00 0.00 36 1014.2
20260903083543 79 0 0.0 3.0 0.00 0.00 0.00 36 1014.2
20260903083110 79 0 0.0 3.0 0.00 0.00 0.00 37 1014.2
20260903082539 79 209 1.0 4.0 0.00 0.00 0.00 36 1014.2
20260903082040 79 202 1.0 4.0 0.00 0.00 0.00 37 1014.3
20260903081558 79 0 0.0 4.0 0.00 0.00 0.00 37 1014.2
20260903081038 79 167 1.0 3.0 0.00 0.00 0.00 36 1014.1
20260903080543 79 186 1.0 5.0 0.00 0.00 0.00 36 1014.1
20260903080104 79 186 1.0 5.0 0.00 0.00 0.00 37 1014.1
20260903075543 80 248 1.0 5.0 0.00 0.00 0.00 36 1014.0
20260903075042 80 272 1.0 4.0 0.00 0.00 0.00 37 1014.1
20260903074610 80 180 1.0 4.0 0.00 0.00 0.00 37 1014.2
20260903074041 80 188 1.0 4.0 0.00 0.00 0.00 37 1014.3
20260903073543 80 0 0.0 4.0 0.00 0.00 0.00 36 1014.3
20260903073135 80 251 1.0 7.0 0.00 0.00 0.00 36 1014.6
20260903072540 80 240 3.0 7.0 0.00 0.00 0.00 36 1014.8
20260903072039 80 265 3.0 6.0 0.00 0.00 0.00 36 1014.7
20260903071621 80 249 3.0 8.0 0.00 0.00 0.00 36 1014.7
20260903071043 80 360 2.0 8.0 0.00 0.00 0.00 36 1014.7
20260903070543 80 360 2.0 5.0 0.00 0.00 0.00 36 1014.7
20260903070103 80 360 1.0 6.0 0.00 0.00 0.00 36 1014.6
20260903065540 80 360 2.0 9.0 0.00 0.00 0.00 36 1014.7
20260903065043 81 360 2.0 9.0 0.00 0.00 0.00 35 1014.6
20260903064600 81 360 3.0 6.0 0.00 0.00 0.00 35 1014.7
20260903064042 81 0 0.0 8.0 0.00 0.00 0.00 35 1014.7
20260903063542 81 360 1.0 9.0 0.00 0.00 0.00 35 1014.7
20260903063104 81 360 3.0 9.0 0.00 0.00 0.00 34 1014.7
20260903062543 82 360 2.0 5.0 0.00 0.00 0.00 34 1014.8
20260903062044 82 0 1.0 9.0 0.00 0.00 0.00 35 1014.8
20260903061601 82 360 4.0 9.0 0.00 0.00 0.00 35 1014.9
20260903061042 82 360 3.0 8.0 0.00 0.00 0.00 34 1015.2
20260903060540 83 360 1.0 6.0 0.00 0.00 0.00 34 1015.2
20260903060154 83 360 1.0 6.0 0.00 0.00 0.00 34 1015.0
20260903055542 82 360 2.0 6.0 0.00 0.00 0.00 34 1015.1
20260903055039 82 0 2.0 8.0 0.00 0.00 0.00 34 1015.2
20260903054607 82 360 4.0 8.0 0.00 0.00 0.00 34 1015.2
20260903054042 82 360 2.0 6.0 0.00 0.00 0.00 35 1015.3
20260903053544 82 360 1.0 4.0 0.00 0.00 0.00 35 1015.2
20260903053132 81 360 1.0 5.0 0.00 0.00 0.00 35 1015.3
20260903052544 81 360 1.0 5.0 0.00 0.00 0.00 36 1015.3
20260903052042 81 360 2.0 5.0 0.00 0.00 0.00 36 1015.4
20260903051608 81 167 2.0 6.0 0.00 0.00 0.00 36 1015.4
20260903051042 81 360 2.0 6.0 0.00 0.00 0.00 36 1015.6
20260903050541 81 360 2.0 6.0 0.00 0.00 0.00 36 1015.5
20260903050134 82 360 2.0 5.0 0.00 0.00 0.00 35 1015.7
20260903045542 81 0 0.0 6.0 0.00 0.00 0.00 36 1015.7
20260903045041 81 0 3.0 6.0 0.00 0.00 0.00 36 1015.8
20260903044602 81 360 1.0 4.0 0.00 0.00 0.00 36 1015.8
20260903044044 80 360 1.0 4.0 0.00 0.00 0.00 37 1015.9
20260903043542 79 360 1.0 4.0 0.00 0.00 0.00 37 1016.0
20260903043054 79 360 2.0 5.0 0.00 0.00 0.00 37 1016.0
20260903042542 79 360 1.0 8.0 0.00 0.00 0.00 38 1016.2
20260903042042 80 360 2.0 8.0 0.00 0.00 0.00 37 1016.1
20260903041603 81 360 1.0 4.0 0.00 0.00 0.00 36 1016.2
20260903041042 81 360 0.0 4.0 0.00 0.00 0.00 37 1016.3
20260903040543 80 360 0.0 5.0 0.00 0.00 0.00 38 1016.2
20260903040106 79 360 1.0 5.0 0.00 0.00 0.00 38 1016.4
20260903035543 79 360 1.0 5.0 0.00 0.00 0.00 37 1016.4
20260903035041 79 360 1.0 5.0 0.00 0.00 0.00 39 1016.6
20260903034556 78 0 0.0 5.0 0.00 0.00 0.00 39 1016.6
20260903034044 78 360 1.0 5.0 0.00 0.00 0.00 40 1016.7
20260903033539 77 360 1.0 5.0 0.00 0.00 0.00 40 1016.8
20260903033052 77 360 2.0 5.0 0.00 0.00 0.00 40 1017.1
20260903032543 78 360 1.0 4.0 0.00 0.00 0.00 40 1017.2
20260903032042 78 360 1.0 5.0 0.00 0.00 0.00 41 1017.3
20260903031601 78 360 1.0 5.0 0.00 0.00 0.00 41 1017.3
20260903031042 78 360 1.0 6.0 0.00 0.00 0.00 41 1017.5
20260903030543 78 360 2.0 6.0 0.00 0.00 0.00 40 1017.6
20260903025540 77 173 1.0 4.0 0.00 0.00 0.00 42 1017.9
20260903025043 76 0 1.0 4.0 0.00 0.00 0.00 42 1018.1
20260903024553 76 121 1.0 4.0 0.00 0.00 0.00 43 1018.1
20260903024042 75 153 0.0 4.0 0.00 0.00 0.00 44 1018.2
20260903023540 75 184 1.0 6.0 0.00 0.00 0.00 46 1018.1
20260903023107 74 54 2.0 6.0 0.00 0.00 0.00 46 1018.2
20260903022541 74 0 2.0 7.0 0.00 0.00 0.00 46 1018.3
20260903022045 73 74 2.0 7.0 0.00 0.00 0.00 47 1018.4
20260903021606 73 76 2.0 6.0 0.00 0.00 0.00 47 1018.3
20260903021039 72 0 1.0 6.0 0.00 0.00 0.00 47 1018.5
20260903020543 72 113 1.0 4.0 0.00 0.00 0.00 48 1018.6
20260903020104 72 198 2.0 7.0 0.00 0.00 0.00 49 1018.6
20260903015541 71 125 2.0 7.0 0.00 0.00 0.00 50 1018.8
20260903015042 71 113 2.0 6.0 0.00 0.00 0.00 50 1019.0
20260903014605 70 111 1.0 6.0 0.00 0.00 0.00 51 1019.1
20260903014039 70 111 2.0 6.0 0.00 0.00 0.00 51 1019.2
20260903013543 70 133 1.0 6.0 0.00 0.00 0.00 52 1019.2
20260903013107 69 137 2.0 7.0 0.00 0.00 0.00 52 1019.4
20260903012542 68 82 1.0 7.0 0.00 0.00 0.00 54 1019.4
20260903012042 68 91 1.0 6.0 0.00 0.00 0.00 55 1019.4
20260903011601 68 91 2.0 6.0 0.00 0.00 0.00 55 1019.6
20260903011043 67 99 2.0 6.0 0.00 0.00 0.00 56 1019.7
20260903010544 66 0 2.0 6.0 0.00 0.00 0.00 57 1019.8
20260903010059 66 78 2.0 7.0 0.00 0.00 0.00 57 1019.8
20260903005541 66 109 3.0 7.0 0.00 0.00 0.00 59 1019.9
20260903005043 65 90 2.0 7.0 0.00 0.00 0.00 59 1019.9
20260903004554 65 83 3.0 7.0 0.00 0.00 0.00 60 1019.9
20260903004041 64 106 3.0 8.0 0.00 0.00 0.00 60 1020.0
20260903003544 64 89 3.0 8.0 0.00 0.00 0.00 61 1020.0
20260903003105 63 88 3.0 7.0 0.00 0.00 0.00 62 1020.0
20260903002543 63 134 3.0 8.0 0.00 0.00 0.00 62 1020.0
20260903002042 62 113 3.0 8.0 0.00 0.00 0.00 63 1020.0
20260903001614 62 94 4.0 8.0 0.00 0.00 0.00 63 1020.0
20260903001041 62 86 4.0 8.0 0.00 0.00 0.00 63 1020.0
20260903000541 62 360 3.0 8.0 0.00 0.00 0.00 64 1019.9
20260903000100 61 360 4.0 9.0 0.00 0.00 0.00 64 1019.9
20260902235540 61 360 4.0 9.0 0.00 0.00 0.00 65 1019.8
20260902235042 61 360 5.0 9.0 0.00 0.00 0.00 65 1019.9
20260902234621 61 360 3.0 9.0 0.00 0.00 0.00 66 1019.9